Probability
0 0 0 1 1 1 0 0 0 0 0 0 0 0 0 0 0 0 0 0 0 0 1 1 1 1 2 3 4 5 5 4 4 3 2 3 2 1 0 0 0 1 2
0 0 0 0 1 1 0 0 0 0 0 0 0 0 0 0 0 0 0 0 0 0 0 1 1 2 3 3 3 3 3 3 3 3 3 3 3 2 0 0 0 1 2
0 0 0 0 0 1 1 1 1 0 0 0 0 0 0 0 0 0 0 0 0 0 0 0 1 2 2 2 2 1 1 1 2 2 2 3 5 5 3 1 1 1 2
0 0 0 0 0 0 1 2 2 1 0 0 0 0 0 0 0 0 0 0 0 0 0 0 0 1 1 1 1 0 0 0 1 2 2 3 7 8 7 5 3 3 4
0 0 0 0 0 0 1 2 2 1 0 0 0 0 0 0 0 0 0 0 0 0 0 0 0 0 0 0 0 0 0 0 1 3 3 4 6 9 9 9 7 6 6
0 0 0 0 0 0 0 1 1 0 0 0 0 0 0 0 0 0 0 0 0 0 0 0 0 0 0 0 1 1 1 1 1 2 3 3 5 6 8 9 8 7 7
0 0 0 0 0 0 0 0 0 0 0 0 0 0 0 0 0 0 0 0 0 0 0 0 0 0 0 0 0 1 1 2 2 1 1 1 2 4 6 7 8 7 7
0 0 0 0 0 0 0 0 0 0 0 0 0 0 0 0 0 0 0 0 0 0 0 0 0 0 0 0 0 0 1 2 2 1 0 0 1 3 4 5 5 6 5
0 0 0 0 0 0 0 0 0 0 0 0 0 0 0 0 0 0 0 0 0 0 0 0 0 0 0 0 0 0 0 1 1 1 0 0 1 3 4 4 4 3 2
0 0 0 0 0 0 0 0 0 0 0 0 0 0 0 0 0 0 0 0 0 0 0 0 0 0 0 0 0 0 0 0 0 0 0 1 2 4 4 4 3 2 1
0 0 0 0 0 0 0 0 0 0 0 0 0 0 0 0 0 0 0 0 0 0 0 0 0 0 0 0 0 0 0 0 0 0 0 1 2 4 4 4 4 2 1
0 0 0 0 0 0 0 0 0 0 0 0 0 0 0 0 0 0 0 0 0 0 0 0 0 0 0 0 0 0 0 0 0 0 0 0 1 2 3 4 4 3 1
0 0 0 0 0 0 0 0 0 0 0 0 0 0 0 0 0 0 0 0 0 0 0 0 0 0 0 0 0 0 0 0 0 0 0 0 0 0 2 4 4 3 1
0 0 0 0 0 0 0 0 0 0 0 0 0 0 0 0 0 0 0 0 0 0 0 0 0 0 0 0 0 0 0 0 0 0 0 0 0 0 0 2 2 2 1
0 0 0 0 0 0 0 0 0 0 0 0 0 0 0 0 0 0 0 0 0 0 0 0 0 0 0 0 0 0 0 0 0 0 0 0 0 0 0 0 0 0 1
0 0 0 0 0 0 0 0 0 0 0 0 0 0 0 0 0 0 0 0 0 0 0 0 0 0 0 0 0 0 0 0 0 0 0 0 0 0 0 0 0 0 0
0 0 0 0 0 0 0 0 0 0 0 0 0 0 0 0 0 0 0 0 0 0 0 0 0 0 0 0 0 0 0 0 0 0 0 0 0 0 0 0 0 0 0
0 0 0 0 0 0 0 0 0 0 0 0 0 0 0 0 0 0 0 0 0 0 0 0 0 0 0 0 0 0 0 0 0 0 0 0 0 0 0 0 0 0 0
0 0 0 0 0 0 0 0 0 0 0 0 0 0 0 0 0 0 0 0 0 0 0 0 0 0 0 0 0 0 0 0 0 0 0 0 0 0 0 0 0 0 0
0 0 0 0 0 0 0 0 0 0 0 0 0 0 0 0 0 0 0 0 0 0 0 0 0 0 0 0 0 0 0 0 0 0 0 0 0 0 0 0 0 0 0
0 0 0 0 0 0 0 0 0 0 0 0 0 0 0 0 0 0 0 0 0 0 0 0 0 0 0 0 0 0 0 0 0 0 0 0 0 0 0 0 0 0 0
0 0 0 0 0 0 0 0 0 0 0 0 0 0 0 0 0 0 0 0 0 0 0 0 0 0 0 0 0 0 0 0 0 0 0 0 0 0 0 0 0 0 0
0 0 0 0 0 0 0 0 0 0 0 0 0 0 0 0 0 0 0 0 0 0 0 0 0 0 0 0 0 0 0 0 0 0 0 0 0 0 0 0 0 0 0
0 0 0 0 0 0 0 0 0 0 0 0 0 0 0 0 0 0 0 0 0 0 0 0 0 0 0 0 0 0 0 0 0 0 0 0 0 0 0 0 0 0 0
0 0 0 0 0 0 0 0 0 0 0 0 0 0 0 0 0 0 0 0 0 0 0 0 0 0 0 0 0 0 0 0 0 0 0 0 0 0 0 0 0 0 0
0 0 0 0 0 0 0 0 0 0 0 0 0 0 0 0 0 0 0 0 0 0 0 0 0 0 0 0 0 0 0 0 0 0 0 0 0 0 0 0 0 0 0
Wind_Speed
2 2 2 2 2 2 2 2 2 3 3 3 3 3 3 3 3 3 2 6 7 6 5 4 3 2 2 3 3 4 4 3 2 2 2 3 3 3 3 3 3 3 3
2 2 2 2 2 2 2 2 2 2 2 2 3 3 2 2 3 3 3 4 7 7 6 4 3 2 1 1 3 3 3 3 3 2 1 2 2 2 2 2 2 2 3
2 2 1 1 1 1 2 2 2 2 2 2 2 2 2 2 2 2 3 2 3 6 7 6 5 4 3 2 2 2 2 2 2 2 1 0 1 1 2 2 2 2 2
2 2 2 1 1 1 1 2 2 2 2 1 1 2 2 2 2 2 2 2 2 3 5 7 7 6 4 3 3 2 3 2 2 2 2 1 1 1 2 2 2 2 2
2 2 1 1 1 1 1 1 1 1 1 1 1 1 2 1 2 2 2 2 2 3 3 5 7 6 6 5 4 3 3 3 2 2 2 2 2 2 2 2 2 2 1
2 2 1 2 1 1 1 1 1 1 1 1 1 1 1 1 1 1 2 2 2 2 3 3 3 4 5 6 5 4 4 3 3 3 3 3 2 3 2 3 2 2 2
2 2 1 1 1 1 0 1 1 1 1 1 1 1 1 1 1 1 1 1 2 2 2 3 2 2 3 5 5 5 5 5 4 4 4 4 3 3 3 3 3 2 2
2 1 1 1 1 1 1 0 1 1 0 1 1 0 1 2 1 1 1 1 1 2 2 2 2 2 2 2 4 6 6 6 6 5 5 5 5 4 3 3 4 4 3
2 2 1 0 0 0 0 1 1 2 2 1 1 1 1 2 2 1 1 1 1 1 2 1 2 2 2 2 2 4 6 7 7 6 6 6 6 5 4 3 3 4 4
2 2 1 0 0 0 0 1 1 1 2 2 1 1 1 1 1 2 1 1 1 2 2 2 2 2 2 2 3 4 5 6 7 7 6 6 7 6 5 5 4 4 4
2 2 2 1 1 1 1 1 1 1 1 2 2 1 1 1 1 2 3 2 2 2 2 2 2 2 2 2 2 3 5 5 6 6 6 6 7 6 5 5 4 4 4
2 3 3 2 1 1 2 1 2 2 2 1 2 2 2 2 2 2 3 3 3 3 2 2 2 2 2 1 3 4 5 5 6 6 6 6 6 7 6 6 5 4 5
2 3 3 2 2 2 2 1 2 2 2 2 3 2 2 3 2 2 2 3 3 3 2 2 2 2 2 1 2 4 5 6 6 7 6 6 6 6 7 6 6 6 6
2 2 3 3 3 3 2 2 2 2 2 3 3 3 2 2 2 2 3 2 3 3 3 3 2 2 2 2 3 4 4 6 6 7 7 6 6 6 6 6 6 5 5
2 2 2 3 3 3 3 2 2 3 2 3 3 3 3 3 2 2 2 3 3 4 5 3 2 3 2 2 4 2 3 7 7 7 7 7 6 6 6 7 6 6 6
2 2 2 3 3 3 3 2 2 2 2 2 3 3 3 2 2 2 3 3 3 4 5 3 3 2 3 3 4 3 4 7 8 8 8 7 7 7 7 7 7 7 6
3 2 3 3 3 3 3 2 2 3 2 3 3 3 4 3 3 3 2 2 3 3 5 4 2 2 3 3 3 3 3 4 4 8 8 8 7 8 7 8 7 6 6
3 3 3 3 3 3 3 3 3 3 3 3 3 3 4 3 3 3 3 3 3 3 4 5 4 3 3 3 3 4 3 3 4 7 8 8 8 8 8 8 7 7 7
3 3 3 3 3 4 3 3 3 3 4 4 4 4 4 3 4 3 3 3 3 3 3 4 4 3 3 2 3 4 4 3 4 5 7 7 8 8 8 8 7 7 8
3 3 3 3 3 4 4 3 3 4 4 4 4 4 4 4 5 4 4 4 4 4 4 4 4 3 3 2 2 3 4 3 4 3 4 5 6 8 9 8 7 7 8
3 3 3 3 4 3 3 3 4 4 4 4 4 4 5 6 7 5 4 4 4 4 3 4 4 3 3 2 3 3 4 3 4 3 3 3 3 3 5 6 6 7 8
4 4 4 4 4 4 6 7 5 4 4 4 5 4 5 6 7 8 8 8 6 5 5 4 4 5 5 4 4 3 3 3 4 2 2 4 3 4 4 4 6 7 7
4 4 4 4 4 6 8 8 8 4 4 4 4 4 4 5 6 5 6 7 7 8 8 6 6 6 5 5 4 5 4 4 5 3 3 5 3 4 4 4 7 7 7
4 4 5 5 5 6 9 9 8 4 4 4 4 5 5 5 5 5 4 5 5 6 7 6 6 6 6 5 5 6 5 5 4 3 3 4 3 4 4 3 6 7 7
4 4 5 4 5 6 9 9 8 3 4 4 5 5 5 5 8 7 5 5 5 5 6 8 8 7 8 7 5 3 3 3 3 3 2 2 2 3 3 3 4 5 6
4 5 5 5 5 6 9 9 8 3 4 4 4 4 6 7 8 8 4 4 5 5 4 4 5 6 6 6 6 4 4 3 3 3 2 2 1 1 3 2 2 2 4
Wind_Direction
66 64 57 60 61 61 68 68 70 65 57 45 44 52 49 42 37 27 10 21 29 33 36 45 49 62 73 74 85 77 68 69 62 89 116 120 122 128 128 125 118 116 111
61 63 65 59 54 58 70 79 86 83 71 58 46 39 46 44 37 29 19 14 19 22 24 31 34 36 56 78 78 82 68 60 55 53 89 122 129 139 144 146 144 136 124
64 61 68 65 50 48 68 76 66 66 64 58 44 28 32 35 39 35 22 17 10 16 20 25 24 24 31 55 62 63 64 51 34 22 22 140 136 143 162 168 169 161 154
55 67 60 48 38 59 63 81 75 68 54 51 34 10 15 11 25 29 27 20 14 8 9 22 20 17 25 35 41 35 33 11 1 353 355 325 256 225 194 171 165 173 177
39 64 56 29 30 70 73 79 70 88 81 42 23 18 8 2 1 10 20 19 11 9 1 8 12 14 16 16 22 20 8 358 329 312 320 336 291 261 230 208 197 190 179
31 45 59 25 31 66 50 60 104 77 104 104 22 9 346 342 358 7 357 4 0 4 5 360 357 355 4 9 5 360 350 340 334 308 293 296 295 274 247 226 211 201 196
36 48 48 39 26 70 53 68 105 122 85 79 59 346 335 336 347 345 347 358 355 352 358 357 353 350 341 352 351 345 336 334 321 309 294 285 271 265 255 236 220 209 214
23 37 47 41 29 32 29 71 81 130 106 109 123 117 322 316 329 337 326 324 332 341 340 344 350 343 339 336 333 337 331 327 317 300 302 296 285 262 259 254 237 221 217
7 17 4 22 43 59 267 253 191 164 181 200 146 156 177 237 299 299 276 294 309 299 304 313 324 325 326 327 321 321 328 325 317 316 312 311 299 275 260 258 259 240 230
360 0 348 315 193 199 274 284 245 229 178 190 207 238 212 176 195 292 295 279 277 276 286 299 297 302 307 306 308 314 318 319 317 312 313 309 314 288 270 259 262 260 248
349 1 5 351 318 262 245 283 272 237 209 195 190 196 209 220 203 209 263 283 281 258 263 265 263 266 274 284 290 304 312 318 315 312 309 310 309 311 282 267 263 272 255
341 352 352 345 325 303 274 261 251 219 220 230 210 190 190 195 202 207 233 259 268 265 261 262 254 253 248 262 288 306 310 315 312 309 308 310 309 318 306 279 268 273 269
337 336 343 332 317 299 294 298 279 239 217 223 225 230 226 231 219 216 223 246 260 273 267 257 245 245 250 250 271 297 299 305 306 303 301 300 309 314 313 302 280 273 273
290 312 312 318 322 319 302 281 287 264 237 233 241 242 246 248 238 229 221 224 258 265 252 252 254 237 248 254 278 288 280 293 294 296 295 293 299 303 313 300 298 288 283
316 315 309 312 314 314 305 296 284 279 261 247 247 242 246 253 243 243 233 221 223 244 251 241 239 240 245 249 277 275 279 286 284 285 284 288 287 289 299 295 292 289 281
314 312 311 309 308 307 306 295 295 298 284 274 260 247 247 254 252 251 240 238 235 232 249 246 244 258 256 266 275 264 267 285 283 281 277 276 275 277 283 286 283 283 280
312 307 303 303 302 302 306 295 299 308 288 286 279 259 253 249 246 248 247 240 241 235 252 269 271 277 256 259 278 269 262 265 275 283 280 274 271 273 276 279 275 280 279
312 307 299 294 293 293 293 289 289 297 279 277 277 271 270 261 248 243 240 244 244 237 240 262 272 271 261 261 268 268 271 270 268 279 280 279 276 274 277 275 271 275 275
309 310 303 291 288 288 283 283 276 278 270 264 264 263 268 267 260 255 245 244 247 248 243 249 265 271 270 278 284 281 284 277 278 278 277 279 279 278 282 274 270 271 271
303 303 300 293 293 290 286 287 283 282 275 266 262 261 263 261 257 251 248 246 246 245 241 243 257 268 272 277 267 271 280 273 277 281 282 283 284 283 285 277 278 276 273
308 301 301 299 296 287 280 285 279 277 274 272 268 263 263 268 270 264 259 248 242 243 241 243 247 260 261 266 259 261 269 277 268 256 273 273 278 271 274 274 272 272 275
308 306 299 296 295 291 296 293 290 276 275 273 275 275 273 271 272 275 274 269 259 247 240 240 246 244 248 251 255 258 266 271 271 248 261 272 262 263 259 251 267 271 274
302 300 298 293 289 288 296 294 291 283 274 268 272 274 274 271 279 275 278 278 269 260 249 240 243 246 248 245 242 251 249 252 255 253 259 266 250 258 263 269 274 270 268
294 293 293 290 290 292 299 297 298 286 273 268 267 267 269 271 266 274 272 274 266 254 250 242 240 247 251 248 237 240 243 253 268 259 238 252 257 263 273 267 269 266 270
290 289 288 287 289 295 299 297 300 281 275 273 268 267 270 267 275 284 272 266 271 268 264 257 257 260 265 266 259 247 238 247 264 258 223 239 262 282 278 264 267 280 286
285 292 295 291 285 287 296 300 298 278 275 279 275 270 275 284 288 287 268 258 262 267 271 268 261 263 262 260 256 237 226 238 259 257 212 221 250 305 294 264 263 282 289